FDX1424 SBKP-KMEM

Flight info

Callsign FDX1424
Flight time N/A
Altitude 36000
Route GERTU UM775 EVRIV DCT ABUSE DCT UGAPI UL201 ARPAR/N0484F380 UL201 ORIBO/N0482F400 UL201 LONAX UM782 OMIRO UN420 ILUBA UL333 RAKAR L333 HRV DCT OYSTY J35 MCB DCT MEVEE HOBRK4
Aircraft MD11/H-SDE1E2E3FGHIJ2J3J4J5M1RWXY/LB1D1

Departure

Time 2026-05-06 03:40
Airport Viracopos International Airport (SBKP)

Arrival

Time N/A
Airport Memphis International Airport (KMEM)
Time Latitude Longitude Altitude Speed Heading
2026-05-06 03:23 -23.00602 -47.14314 2168 ft 0 kts 218°
2026-05-06 03:32 -23.00600 -47.14312 2168 ft 3 kts 218°
2026-05-06 03:32 -23.00579 -47.14295 2166 ft 4 kts 218°
2026-05-06 03:32 -23.00557 -47.14276 2165 ft 4 kts 218°
2026-05-06 03:32 -23.00538 -47.14261 2165 ft 4 kts 223°
2026-05-06 03:33 -23.00525 -47.14243 2165 ft 4 kts 265°
2026-05-06 03:33 -23.00529 -47.14223 2165 ft 4 kts 308°
2026-05-06 03:33 -23.00542 -47.14206 2165 ft 0 kts 308°
2026-05-06 03:36 -23.00540 -47.14208 2165 ft 2 kts 308°
2026-05-06 03:36 -23.00523 -47.14230 2165 ft 7 kts 309°
2026-05-06 03:37 -23.00476 -47.14295 2171 ft 16 kts 308°
2026-05-06 03:37 -23.00388 -47.14420 2168 ft 26 kts 308°
2026-05-06 03:37 -23.00259 -47.14600 2167 ft 33 kts 308°
2026-05-06 03:37 -23.00126 -47.14786 2168 ft 21 kts 312°
2026-05-06 03:38 -23.00038 -47.14814 2170 ft 12 kts 12°
2026-05-06 03:38 -22.99939 -47.14776 2168 ft 16 kts 31°
2026-05-06 03:38 -22.99862 -47.14695 2171 ft 7 kts 43°
2026-05-06 03:38 -22.99857 -47.14682 2167 ft 2 kts 75°
2026-05-06 03:39 -22.99866 -47.14665 2167 ft 0 kts 131°
2026-05-06 03:39 -22.99867 -47.14665 2167 ft 0 kts 131°
2026-05-06 03:39 -22.99880 -47.14648 2167 ft 26 kts 131°
2026-05-06 03:40 -23.00256 -47.14124 2170 ft 144 kts 128°
2026-05-06 03:40 -23.01031 -47.13069 2588 ft 194 kts 129°
2026-05-06 03:40 -23.01834 -47.12044 4282 ft 163 kts 127°
2026-05-06 03:40 -23.02583 -47.11068 5601 ft 177 kts 126°
2026-05-06 03:41 -23.03210 -47.09745 6021 ft 222 kts 99°
2026-05-06 03:41 -23.03077 -47.07954 6204 ft 257 kts 72°
2026-05-06 03:41 -23.02407 -47.06119 6781 ft 272 kts 66°
2026-05-06 03:41 -23.01639 -47.04258 7107 ft 271 kts 65°
2026-05-06 03:42 -23.00761 -47.02441 7449 ft 273 kts 53°
2026-05-06 03:42 -22.99412 -47.00955 7817 ft 275 kts 41°
2026-05-06 03:42 -22.97866 -46.99751 8060 ft 284 kts 23°
2026-05-06 03:42 -22.95979 -46.99428 9732 ft 281 kts 358°
2026-05-06 03:43 -22.94031 -46.99949 10726 ft 308 kts 338°
2026-05-06 03:43 -22.92121 -47.01360 10911 ft 359 kts 314°
2026-05-06 03:43 -22.90643 -47.03612 11928 ft 372 kts 300°
2026-05-06 03:43 -22.89379 -47.06107 13167 ft 382 kts 297°
2026-05-06 03:44 -22.88137 -47.08684 14333 ft 391 kts 297°
2026-05-06 03:44 -22.86758 -47.11250 15423 ft 397 kts 302°
2026-05-06 03:44 -22.85132 -47.13703 16513 ft 403 kts 308°
2026-05-06 03:44 -22.83299 -47.16023 17569 ft 409 kts 312°
2026-05-06 03:45 -22.81307 -47.18262 18586 ft 415 kts 314°
2026-05-06 03:45 -22.79221 -47.20452 19436 ft 421 kts 315°
2026-05-06 03:45 -22.77070 -47.22633 20275 ft 426 kts 316°
2026-05-06 03:45 -22.74879 -47.24824 21098 ft 431 kts 316°
2026-05-06 03:46 -22.72660 -47.27034 21955 ft 436 kts 315°
2026-05-06 03:46 -22.70413 -47.29274 22823 ft 441 kts 315°
2026-05-06 03:46 -22.68147 -47.31535 23720 ft 446 kts 315°
2026-05-06 03:46 -22.65852 -47.33828 24496 ft 451 kts 315°
2026-05-06 03:47 -22.63533 -47.36146 25319 ft 456 kts 314°
2026-05-06 03:47 -22.61194 -47.38486 26125 ft 461 kts 314°
2026-05-06 03:47 -22.58824 -47.40855 26965 ft 466 kts 313°
2026-05-06 03:47 -22.56431 -47.43246 27767 ft 471 kts 313°
2026-05-06 03:48 -22.54045 -47.45630 28565 ft 475 kts 313°
2026-05-06 03:48 -22.51602 -47.48070 29373 ft 480 kts 312°
2026-05-06 03:48 -22.49132 -47.50534 30133 ft 485 kts 312°
2026-05-06 03:48 -22.46599 -47.53047 30733 ft 491 kts 313°
2026-05-06 03:49 -22.43942 -47.55391 31445 ft 494 kts 317°
2026-05-06 03:49 -22.41192 -47.57558 32209 ft 495 kts 319°
2026-05-06 03:49 -22.38358 -47.59671 32965 ft 495 kts 320°
2026-05-06 03:49 -22.35513 -47.61754 33748 ft 493 kts 319°
2026-05-06 03:50 -22.32644 -47.63860 34454 ft 491 kts 319°
2026-05-06 03:50 -22.29866 -47.65916 34921 ft 492 kts 318°
2026-05-06 03:50 -22.27048 -47.68019 35276 ft 491 kts 317°
2026-05-06 03:50 -22.24246 -47.70120 35622 ft 491 kts 317°
2026-05-06 03:51 -22.21436 -47.72233 35984 ft 492 kts 317°
2026-05-06 03:51 -22.18623 -47.74351 36131 ft 493 kts 316°
2026-05-06 03:51 -22.15830 -47.76445 36170 ft 481 kts 316°
2026-05-06 03:51 -22.13103 -47.78482 36177 ft 475 kts 316°
2026-05-06 03:52 -22.07699 -47.82536 36176 ft 472 kts 316°
2026-05-06 03:52 -22.02308 -47.86584 36174 ft 473 kts 316°
2026-05-06 03:53 -21.96912 -47.90628 36169 ft 473 kts 316°
2026-05-06 03:53 -21.91506 -47.94670 36168 ft 473 kts 316°
2026-05-06 03:54 -21.86097 -47.98710 36167 ft 473 kts 316°
2026-05-06 03:54 -21.80691 -48.02745 36165 ft 473 kts 316°
2026-05-06 03:55 -21.75254 -48.06856 36335 ft 486 kts 316°
2026-05-06 03:55 -21.72497 -48.08961 36811 ft 488 kts 316°
2026-05-06 03:55 -21.69729 -48.11073 37183 ft 487 kts 315°
2026-05-06 03:56 -21.66967 -48.13178 37568 ft 487 kts 315°
2026-05-06 03:56 -21.64235 -48.15260 37927 ft 487 kts 315°
2026-05-06 03:56 -21.61476 -48.17363 38115 ft 487 kts 315°
2026-05-06 03:56 -21.58701 -48.19480 38382 ft 490 kts 315°
2026-05-06 03:57 -21.55921 -48.21598 38851 ft 490 kts 314°
2026-05-06 03:57 -21.53141 -48.23713 39187 ft 489 kts 314°
2026-05-06 03:57 -21.50362 -48.25825 39532 ft 487 kts 314°
2026-05-06 03:57 -21.47598 -48.27924 39891 ft 486 kts 314°
2026-05-06 03:58 -21.44836 -48.30023 40085 ft 485 kts 315°
2026-05-06 03:58 -21.42082 -48.32115 40134 ft 484 kts 315°
2026-05-06 03:58 -21.36631 -48.36255 40147 ft 484 kts 315°
2026-05-06 03:59 -21.32067 -48.39719 40141 ft 483 kts 315°
2026-05-06 03:59 -21.26572 -48.43885 40133 ft 483 kts 315°
2026-05-06 04:00 -21.21081 -48.48043 40144 ft 483 kts 315°
2026-05-06 04:00 -21.15589 -48.52199 40142 ft 483 kts 315°
2026-05-06 04:01 -21.10091 -48.56351 40141 ft 483 kts 315°
2026-05-06 04:01 -21.04589 -48.60495 40126 ft 483 kts 315°
2026-05-06 04:02 -20.99083 -48.64644 40139 ft 484 kts 315°
2026-05-06 04:02 -20.93609 -48.68768 40134 ft 484 kts 315°
2026-05-06 04:03 -20.88108 -48.72911 40130 ft 484 kts 315°
2026-05-06 04:03 -20.82599 -48.77056 40125 ft 484 kts 315°
2026-05-06 04:04 -20.77080 -48.81206 40127 ft 485 kts 315°
2026-05-06 04:04 -20.71564 -48.85353 40131 ft 484 kts 315°
2026-05-06 04:05 -20.66044 -48.89513 40133 ft 484 kts 315°
2026-05-06 04:05 -20.60573 -48.93639 40126 ft 485 kts 315°
2026-05-06 04:06 -20.55057 -48.97796 40124 ft 485 kts 315°
2026-05-06 04:06 -20.49534 -49.01952 40126 ft 485 kts 315°
2026-05-06 04:07 -20.44019 -49.06099 40129 ft 485 kts 315°
2026-05-06 04:07 -20.38502 -49.10244 40123 ft 484 kts 315°
2026-05-06 04:08 -20.32994 -49.14378 40117 ft 484 kts 315°
2026-05-06 04:08 -20.27489 -49.18507 40119 ft 484 kts 315°
2026-05-06 04:09 -20.21983 -49.22633 40109 ft 484 kts 315°
2026-05-06 04:09 -20.16513 -49.26729 40113 ft 484 kts 315°
2026-05-06 04:10 -20.11004 -49.30849 40111 ft 484 kts 315°
2026-05-06 04:10 -20.05494 -49.34962 40115 ft 483 kts 316°
2026-05-06 04:11 -19.99996 -49.39057 40111 ft 483 kts 316°
2026-05-06 04:11 -19.94481 -49.43166 40111 ft 483 kts 316°
2026-05-06 04:12 -19.88972 -49.47272 40107 ft 483 kts 316°
2026-05-06 04:12 -19.83494 -49.51352 40110 ft 483 kts 316°
2026-05-06 04:13 -19.77990 -49.55447 40108 ft 482 kts 316°
2026-05-06 04:13 -19.72486 -49.59538 40111 ft 482 kts 316°
2026-05-06 04:14 -19.66986 -49.63623 40107 ft 482 kts 316°
2026-05-06 04:14 -19.61485 -49.67707 40108 ft 482 kts 316°
2026-05-06 04:15 -19.55986 -49.71784 40106 ft 482 kts 316°
2026-05-06 04:15 -19.50511 -49.75841 40103 ft 482 kts 316°
2026-05-06 04:16 -19.45019 -49.79905 40105 ft 481 kts 316°
2026-05-06 04:16 -19.39524 -49.83969 40101 ft 481 kts 316°
2026-05-06 04:17 -19.34041 -49.88037 40096 ft 479 kts 314°
2026-05-06 04:17 -19.31575 -49.90330 40098 ft 466 kts 304°
2026-05-06 04:17 -19.29528 -49.92949 40101 ft 457 kts 297°
2026-05-06 04:18 -19.25990 -49.98502 40091 ft 454 kts 295°
2026-05-06 04:18 -19.22495 -50.04073 40097 ft 454 kts 296°
2026-05-06 04:19 -19.18900 -50.09578 40093 ft 455 kts 296°
2026-05-06 04:19 -19.15274 -50.15032 40090 ft 456 kts 297°
2026-05-06 04:20 -19.11615 -50.20516 40089 ft 456 kts 297°
2026-05-06 04:20 -19.07957 -50.25996 40088 ft 455 kts 297°
2026-05-06 04:21 -19.04302 -50.31471 40090 ft 455 kts 297°
2026-05-06 04:21 -19.00669 -50.36910 40086 ft 455 kts 297°
2026-05-06 04:22 -18.97011 -50.42381 40078 ft 456 kts 297°
2026-05-06 04:23 -18.91519 -50.50587 40086 ft 455 kts 297°
2026-05-06 04:23 -18.87855 -50.56054 40086 ft 455 kts 297°
2026-05-06 04:24 -18.84195 -50.61509 40083 ft 455 kts 297°
2026-05-06 04:24 -18.80545 -50.66928 40081 ft 455 kts 298°
2026-05-06 04:25 -18.76884 -50.72364 40085 ft 455 kts 298°
2026-05-06 04:25 -18.73223 -50.77806 40085 ft 455 kts 298°
2026-05-06 04:26 -18.69559 -50.83249 40088 ft 455 kts 298°
2026-05-06 04:26 -18.65894 -50.88691 40081 ft 455 kts 298°
2026-05-06 04:27 -18.62232 -50.94122 40089 ft 454 kts 298°
2026-05-06 04:27 -18.58594 -50.99513 40085 ft 454 kts 298°
2026-05-06 04:28 -18.54928 -51.04943 40092 ft 454 kts 298°
2026-05-06 04:28 -18.51255 -51.10377 40088 ft 454 kts 298°
2026-05-06 04:29 -18.47586 -51.15800 40089 ft 454 kts 298°
2026-05-06 04:29 -18.43917 -51.21219 40089 ft 454 kts 298°
2026-05-06 04:30 -18.40240 -51.26645 40083 ft 454 kts 299°
2026-05-06 04:30 -18.36435 -51.31947 40097 ft 458 kts 301°
2026-05-06 04:31 -18.32455 -51.37182 40098 ft 458 kts 302°
2026-05-06 04:31 -18.28470 -51.42407 40097 ft 457 kts 302°
2026-05-06 04:32 -18.24500 -51.47635 40089 ft 457 kts 302°
2026-05-06 04:32 -18.20536 -51.52865 40098 ft 457 kts 302°
2026-05-06 04:33 -18.16572 -51.58094 40093 ft 458 kts 302°
2026-05-06 04:33 -18.12600 -51.63326 40099 ft 457 kts 302°
2026-05-06 04:34 -18.08630 -51.68551 40101 ft 457 kts 302°
2026-05-06 04:34 -18.04653 -51.73780 40099 ft 457 kts 302°
2026-05-06 04:35 -18.00710 -51.78962 40103 ft 457 kts 302°
2026-05-06 04:35 -17.96735 -51.84183 40100 ft 457 kts 303°
2026-05-06 04:36 -17.92758 -51.89400 40101 ft 457 kts 303°
2026-05-06 04:36 -17.88778 -51.94617 40102 ft 458 kts 303°
2026-05-06 04:37 -17.84790 -51.99830 40104 ft 458 kts 303°
2026-05-06 04:37 -17.80799 -52.05039 40100 ft 458 kts 303°
2026-05-06 04:38 -17.76841 -52.10210 40098 ft 457 kts 303°
2026-05-06 04:38 -17.72858 -52.15415 40102 ft 457 kts 303°
2026-05-06 04:39 -17.68873 -52.20619 40101 ft 457 kts 303°
2026-05-06 04:39 -17.64883 -52.25825 40100 ft 457 kts 303°
2026-05-06 04:40 -17.60895 -52.31024 40093 ft 457 kts 303°
2026-05-06 04:40 -17.56930 -52.36189 40093 ft 457 kts 303°
2026-05-06 04:41 -17.52939 -52.41384 40094 ft 458 kts 303°
2026-05-06 04:41 -17.48940 -52.46584 40094 ft 458 kts 303°
2026-05-06 04:42 -17.44945 -52.51776 40090 ft 458 kts 304°
2026-05-06 04:42 -17.40947 -52.56968 40088 ft 458 kts 304°
2026-05-06 04:43 -17.36949 -52.62156 40088 ft 457 kts 304°
2026-05-06 04:43 -17.32971 -52.67305 40088 ft 458 kts 304°
2026-05-06 04:44 -17.28953 -52.72496 40084 ft 458 kts 304°
2026-05-06 04:44 -17.24942 -52.77683 40082 ft 458 kts 304°
2026-05-06 04:45 -17.20931 -52.82870 40078 ft 458 kts 304°
2026-05-06 04:45 -17.16922 -52.88053 40078 ft 458 kts 304°
2026-05-06 04:46 -17.13589 -52.92358 40062 ft 458 kts 304°
2026-05-06 04:46 -17.09573 -52.97542 40079 ft 458 kts 304°
2026-05-06 04:47 -17.04906 -53.03561 40073 ft 458 kts 304°
2026-05-06 04:47 -17.01542 -53.07895 40072 ft 458 kts 304°
2026-05-06 04:48 -16.97518 -53.13077 40061 ft 458 kts 304°
2026-05-06 04:48 -16.93499 -53.18249 40055 ft 458 kts 304°
2026-05-06 04:49 -16.89496 -53.23381 40060 ft 459 kts 306°
2026-05-06 04:49 -16.85022 -53.28192 40056 ft 463 kts 312°
2026-05-06 04:50 -16.80277 -53.32746 40066 ft 463 kts 313°
2026-05-06 04:50 -16.75521 -53.37299 40069 ft 463 kts 313°
2026-05-06 04:51 -16.70792 -53.41879 40066 ft 463 kts 313°
2026-05-06 04:51 -16.66102 -53.46440 40056 ft 464 kts 313°
2026-05-06 04:52 -16.61382 -53.51031 40064 ft 464 kts 313°
2026-05-06 04:52 -16.56664 -53.55614 40050 ft 464 kts 313°
2026-05-06 04:53 -16.51938 -53.60197 40054 ft 464 kts 313°
2026-05-06 04:53 -16.47178 -53.64740 40047 ft 464 kts 314°
2026-05-06 04:54 -16.42400 -53.69270 40044 ft 465 kts 314°
2026-05-06 04:54 -16.37612 -53.73810 40044 ft 465 kts 314°
2026-05-06 04:55 -16.32835 -53.78341 40031 ft 464 kts 314°
2026-05-06 04:55 -16.28058 -53.82866 40040 ft 464 kts 314°
2026-05-06 04:56 -16.23276 -53.87393 40034 ft 464 kts 314°
2026-05-06 04:56 -16.18520 -53.91894 40036 ft 465 kts 314°
2026-05-06 04:57 -16.13729 -53.96425 40025 ft 465 kts 314°
2026-05-06 04:57 -16.08935 -54.00956 40027 ft 465 kts 314°
2026-05-06 04:58 -16.04141 -54.05484 40026 ft 465 kts 314°
2026-05-06 04:58 -15.99352 -54.10005 40037 ft 465 kts 314°
2026-05-06 04:59 -15.94503 -54.14467 40036 ft 466 kts 316°
2026-05-06 04:59 -15.89507 -54.18774 40033 ft 467 kts 317°
2026-05-06 05:00 -15.84515 -54.23027 40033 ft 467 kts 317°
2026-05-06 05:00 -15.79489 -54.27325 40044 ft 467 kts 317°
2026-05-06 05:01 -15.74484 -54.31615 40043 ft 466 kts 317°
2026-05-06 05:01 -15.69477 -54.35907 40045 ft 467 kts 317°
2026-05-06 05:02 -15.64470 -54.40196 40035 ft 467 kts 317°
2026-05-06 05:02 -15.59454 -54.44489 40047 ft 467 kts 317°
2026-05-06 05:03 -15.54468 -54.48755 40043 ft 467 kts 317°
2026-05-06 05:03 -15.49463 -54.53032 40052 ft 466 kts 317°
2026-05-06 05:04 -15.44451 -54.57313 40044 ft 466 kts 317°
2026-05-06 05:04 -15.39440 -54.61591 40051 ft 466 kts 317°
2026-05-06 05:05 -15.34439 -54.65858 40056 ft 466 kts 317°
2026-05-06 05:05 -15.29429 -54.70123 40051 ft 466 kts 317°
2026-05-06 05:06 -15.24414 -54.74388 40053 ft 466 kts 317°
2026-05-06 05:06 -15.19406 -54.78650 40053 ft 466 kts 317°
2026-05-06 05:07 -15.14428 -54.82885 40055 ft 466 kts 317°
2026-05-06 05:07 -15.09422 -54.87142 40046 ft 466 kts 317°
2026-05-06 05:08 -15.04404 -54.91407 40044 ft 466 kts 317°
2026-05-06 05:08 -14.99394 -54.95662 40043 ft 466 kts 317°
2026-05-06 05:09 -14.94372 -54.99924 40035 ft 467 kts 317°
2026-05-06 05:09 -14.89349 -55.04185 40032 ft 466 kts 317°
2026-05-06 05:10 -14.84399 -55.08494 40035 ft 465 kts 316°
2026-05-06 05:10 -14.79569 -55.12882 40028 ft 465 kts 315°
2026-05-06 05:11 -14.74718 -55.17315 40026 ft 465 kts 315°
2026-05-06 05:11 -14.69867 -55.21733 40018 ft 465 kts 315°
2026-05-06 05:12 -14.64991 -55.26162 40026 ft 466 kts 316°
2026-05-06 05:12 -14.60129 -55.30574 40016 ft 465 kts 316°
2026-05-06 05:13 -14.55266 -55.34984 40017 ft 465 kts 316°
2026-05-06 05:13 -14.50407 -55.39389 40020 ft 465 kts 316°
2026-05-06 05:14 -14.45545 -55.43794 40012 ft 465 kts 316°
2026-05-06 05:14 -14.40707 -55.48174 40022 ft 466 kts 316°
2026-05-06 05:15 -14.35823 -55.52593 40019 ft 466 kts 316°
2026-05-06 05:15 -14.30953 -55.56997 40014 ft 466 kts 316°
2026-05-06 05:16 -14.26080 -55.61400 40019 ft 465 kts 316°
2026-05-06 05:16 -14.21208 -55.65794 40021 ft 465 kts 316°
2026-05-06 05:17 -14.16329 -55.70195 40020 ft 466 kts 315°
2026-05-06 05:17 -14.11606 -55.74766 40016 ft 465 kts 313°
2026-05-06 05:18 -14.06998 -55.79444 40014 ft 465 kts 312°
2026-05-06 05:18 -14.02404 -55.84110 40019 ft 464 kts 313°
2026-05-06 05:19 -13.97827 -55.88734 40017 ft 464 kts 313°
2026-05-06 05:19 -13.93215 -55.93381 40013 ft 464 kts 313°
2026-05-06 05:20 -13.88598 -55.98028 40021 ft 464 kts 313°
2026-05-06 05:20 -13.83982 -56.02672 40015 ft 464 kts 313°
2026-05-06 05:21 -13.79360 -56.07319 40019 ft 464 kts 313°
2026-05-06 05:21 -13.74735 -56.11961 40013 ft 464 kts 313°
2026-05-06 05:22 -13.70097 -56.16587 40014 ft 464 kts 313°
2026-05-06 05:22 -13.65446 -56.21222 40013 ft 465 kts 313°
2026-05-06 05:23 -13.60832 -56.25820 40013 ft 465 kts 313°
2026-05-06 05:23 -13.53858 -56.32768 40009 ft 465 kts 313°
2026-05-06 05:24 -13.49216 -56.37390 40008 ft 464 kts 313°
2026-05-06 05:24 -13.44571 -56.42012 40006 ft 464 kts 313°
2026-05-06 05:25 -13.39929 -56.46629 40005 ft 465 kts 313°
2026-05-06 05:25 -13.35274 -56.51255 40008 ft 465 kts 313°
2026-05-06 05:26 -13.30645 -56.55853 40003 ft 465 kts 313°
2026-05-06 05:26 -13.25993 -56.60472 40002 ft 465 kts 313°
2026-05-06 05:27 -13.21338 -56.65090 40002 ft 465 kts 313°
2026-05-06 05:27 -13.16690 -56.69699 39996 ft 465 kts 313°
2026-05-06 05:28 -13.12027 -56.74312 40003 ft 466 kts 314°
2026-05-06 05:28 -13.07362 -56.78927 40004 ft 466 kts 314°
2026-05-06 05:29 -13.02698 -56.83542 40004 ft 466 kts 314°
2026-05-06 05:29 -12.98062 -56.88129 40004 ft 465 kts 314°
2026-05-06 05:30 -12.93405 -56.92734 40008 ft 465 kts 314°
2026-05-06 05:30 -12.88747 -56.97339 40005 ft 465 kts 314°
2026-05-06 05:31 -12.84092 -57.01937 40002 ft 465 kts 314°
2026-05-06 05:31 -12.79431 -57.06538 40005 ft 465 kts 314°
2026-05-06 05:32 -12.74774 -57.11134 40001 ft 465 kts 314°
2026-05-06 05:32 -12.70121 -57.15720 40000 ft 464 kts 314°
2026-05-06 05:33 -12.65502 -57.20268 40005 ft 464 kts 314°
2026-05-06 05:33 -12.60853 -57.24848 39998 ft 464 kts 314°
2026-05-06 05:34 -12.56984 -57.28659 39996 ft 464 kts 314°
2026-05-06 05:34 -12.52326 -57.33245 39995 ft 464 kts 314°
2026-05-06 05:35 -12.47661 -57.37835 39999 ft 464 kts 314°
2026-05-06 05:35 -12.43002 -57.42418 39993 ft 464 kts 314°
2026-05-06 05:36 -12.38350 -57.46991 40000 ft 464 kts 314°
2026-05-06 05:36 -12.33694 -57.51566 39996 ft 464 kts 314°
2026-05-06 05:37 -12.29061 -57.56115 39993 ft 464 kts 314°
2026-05-06 05:37 -12.24398 -57.60690 39994 ft 464 kts 315°
2026-05-06 05:38 -12.19731 -57.65261 39992 ft 465 kts 315°
2026-05-06 05:38 -12.15064 -57.69832 39993 ft 464 kts 315°
2026-05-06 05:39 -12.10407 -57.74393 39989 ft 464 kts 315°
2026-05-06 05:39 -12.05741 -57.78962 39991 ft 465 kts 315°
2026-05-06 05:40 -12.01061 -57.83542 39989 ft 465 kts 315°
2026-05-06 05:40 -11.96389 -57.88112 39991 ft 465 kts 315°
2026-05-06 05:41 -11.91713 -57.92684 39990 ft 465 kts 315°
2026-05-06 05:41 -11.87075 -57.97215 39990 ft 464 kts 315°
2026-05-06 05:42 -11.82407 -58.01774 39991 ft 464 kts 315°
2026-05-06 05:42 -11.77740 -58.06331 39988 ft 464 kts 315°
2026-05-06 05:43 -11.73063 -58.10893 39988 ft 464 kts 315°
2026-05-06 05:43 -11.68392 -58.15448 39990 ft 464 kts 315°
2026-05-06 05:44 -11.63718 -58.20001 39987 ft 464 kts 315°
2026-05-06 05:44 -11.59042 -58.24549 39988 ft 464 kts 315°
2026-05-06 05:45 -11.54377 -58.29088 39991 ft 464 kts 315°
2026-05-06 05:45 -11.49747 -58.33594 39991 ft 463 kts 316°
2026-05-06 05:46 -11.45083 -58.38131 39991 ft 463 kts 316°
2026-05-06 05:46 -11.40420 -58.42665 39991 ft 463 kts 316°
2026-05-06 05:47 -11.35759 -58.47194 39991 ft 463 kts 316°
2026-05-06 05:47 -11.31098 -58.51723 39992 ft 463 kts 316°
2026-05-06 05:48 -11.26431 -58.56255 39994 ft 463 kts 316°
2026-05-06 05:48 -11.21760 -58.60788 39994 ft 464 kts 316°
2026-05-06 05:49 -11.17119 -58.65289 39994 ft 464 kts 316°
2026-05-06 05:49 -11.12449 -58.69817 39993 ft 464 kts 316°
2026-05-06 05:50 -11.07777 -58.74345 39997 ft 464 kts 316°
2026-05-06 05:50 -11.03101 -58.78871 39997 ft 464 kts 316°
2026-05-06 05:51 -10.98419 -58.83397 39996 ft 464 kts 316°
2026-05-06 05:51 -10.93732 -58.87930 39996 ft 466 kts 316°
2026-05-06 05:52 -10.89029 -58.92479 39995 ft 467 kts 316°
2026-05-06 05:52 -10.84346 -58.97006 39996 ft 467 kts 316°
2026-05-06 05:53 -10.79641 -59.01554 39996 ft 467 kts 316°
2026-05-06 05:53 -10.74932 -59.06103 39995 ft 466 kts 316°
2026-05-06 05:54 -10.70228 -59.10645 39995 ft 466 kts 316°
2026-05-06 05:54 -10.65521 -59.15187 39994 ft 467 kts 316°
2026-05-06 05:55 -10.60833 -59.19710 39995 ft 467 kts 316°
2026-05-06 05:55 -10.56115 -59.24258 39992 ft 467 kts 316°
2026-05-06 05:56 -10.51402 -59.28804 39991 ft 467 kts 316°
2026-05-06 05:56 -10.46707 -59.33360 39991 ft 467 kts 316°
2026-05-06 05:57 -10.42017 -59.37926 39990 ft 467 kts 316°
2026-05-06 05:57 -10.37352 -59.42467 39986 ft 467 kts 316°
2026-05-06 05:58 -10.32652 -59.47037 39988 ft 467 kts 316°
2026-05-06 05:58 -10.27949 -59.51610 39986 ft 467 kts 316°
2026-05-06 05:59 -10.23251 -59.56174 39986 ft 467 kts 316°
2026-05-06 05:59 -10.18549 -59.60741 39985 ft 468 kts 316°
2026-05-06 06:00 -10.13839 -59.65314 39986 ft 468 kts 316°
2026-05-06 06:00 -10.09164 -59.69850 39987 ft 468 kts 316°
2026-05-06 06:01 -10.04450 -59.74422 39981 ft 468 kts 316°
2026-05-06 06:01 -9.99743 -59.78986 39980 ft 468 kts 316°
2026-05-06 06:02 -9.95037 -59.83547 39982 ft 468 kts 316°
2026-05-06 06:02 -9.90327 -59.88107 39983 ft 468 kts 316°
2026-05-06 06:03 -9.85617 -59.92661 39982 ft 468 kts 316°
2026-05-06 06:03 -9.80907 -59.97218 39982 ft 467 kts 316°
2026-05-06 06:04 -9.76234 -60.01738 39982 ft 467 kts 316°
2026-05-06 06:04 -9.71533 -60.06285 39984 ft 467 kts 316°
2026-05-06 06:05 -9.66829 -60.10832 39983 ft 467 kts 316°
2026-05-06 06:05 -9.62127 -60.15376 39982 ft 467 kts 316°
2026-05-06 06:06 -9.57421 -60.19922 39977 ft 467 kts 316°
2026-05-06 06:06 -9.52718 -60.24463 39973 ft 466 kts 316°
2026-05-06 06:07 -9.48022 -60.28995 39977 ft 465 kts 316°
2026-05-06 06:07 -9.43364 -60.33489 39979 ft 465 kts 316°
2026-05-06 06:08 -9.38679 -60.38007 39977 ft 465 kts 316°
2026-05-06 06:08 -9.33993 -60.42524 39980 ft 465 kts 316°
2026-05-06 06:09 -9.29302 -60.47042 39980 ft 465 kts 316°
2026-05-06 06:09 -9.24614 -60.51551 39979 ft 464 kts 316°
2026-05-06 06:10 -9.19927 -60.56062 39979 ft 465 kts 316°
2026-05-06 06:10 -9.15235 -60.60579 39980 ft 465 kts 316°
2026-05-06 06:11 -9.10545 -60.65091 39983 ft 465 kts 316°
2026-05-06 06:11 -9.05885 -60.69573 39982 ft 465 kts 316°
2026-05-06 06:12 -9.01199 -60.74078 39982 ft 465 kts 316°
2026-05-06 06:12 -8.96510 -60.78584 39982 ft 465 kts 316°
2026-05-06 06:13 -8.91824 -60.83087 39979 ft 465 kts 317°
2026-05-06 06:13 -8.87137 -60.87587 39983 ft 464 kts 317°
2026-05-06 06:14 -8.82455 -60.92082 39983 ft 464 kts 317°
2026-05-06 06:14 -8.77768 -60.96580 39982 ft 465 kts 317°
2026-05-06 06:15 -8.73079 -61.01077 39983 ft 464 kts 317°
2026-05-06 06:15 -8.68390 -61.05570 39983 ft 464 kts 317°
2026-05-06 06:16 -8.63732 -61.10030 39983 ft 464 kts 317°
2026-05-06 06:16 -8.59049 -61.14516 39982 ft 463 kts 317°
2026-05-06 06:17 -8.54370 -61.18997 39983 ft 463 kts 317°
2026-05-06 06:17 -8.49692 -61.23476 39985 ft 463 kts 317°
2026-05-06 06:18 -8.45049 -61.27921 39983 ft 462 kts 317°
2026-05-06 06:18 -8.40376 -61.32392 39983 ft 462 kts 317°
2026-05-06 06:19 -8.35698 -61.36865 39983 ft 462 kts 317°
2026-05-06 06:19 -8.31024 -61.41327 39981 ft 462 kts 317°
2026-05-06 06:20 -8.26354 -61.45786 39985 ft 462 kts 317°
2026-05-06 06:20 -8.21683 -61.50245 39986 ft 462 kts 317°
2026-05-06 06:21 -8.17047 -61.54669 39983 ft 462 kts 317°
2026-05-06 06:21 -8.12376 -61.59126 39983 ft 462 kts 317°
2026-05-06 06:22 -8.07709 -61.63577 39986 ft 462 kts 317°
2026-05-06 06:22 -8.03042 -61.68026 39985 ft 462 kts 317°
2026-05-06 06:23 -7.98374 -61.72476 39984 ft 461 kts 317°
2026-05-06 06:23 -7.93704 -61.76926 39984 ft 461 kts 317°
2026-05-06 06:24 -7.89829 -61.80617 39985 ft 461 kts 317°
2026-05-06 06:24 -7.85164 -61.85059 39985 ft 461 kts 317°
2026-05-06 06:25 -7.80500 -61.89498 39988 ft 461 kts 317°
2026-05-06 06:26 -7.73498 -61.96156 39988 ft 461 kts 317°
2026-05-06 06:26 -7.68826 -62.00596 39988 ft 462 kts 317°
2026-05-06 06:27 -7.64146 -62.05045 39987 ft 463 kts 317°
2026-05-06 06:27 -7.59463 -62.09496 39988 ft 463 kts 317°
2026-05-06 06:28 -7.54779 -62.13947 39986 ft 463 kts 317°
2026-05-06 06:28 -7.50115 -62.18377 39991 ft 463 kts 317°
2026-05-06 06:29 -7.45433 -62.22824 39990 ft 463 kts 317°
2026-05-06 06:29 -7.40747 -62.27273 39990 ft 463 kts 317°
2026-05-06 06:30 -7.36054 -62.31726 39990 ft 464 kts 317°
2026-05-06 06:30 -7.31358 -62.36181 39990 ft 464 kts 317°
2026-05-06 06:31 -7.26654 -62.40642 39991 ft 464 kts 317°
2026-05-06 06:31 -7.21954 -62.45099 39987 ft 464 kts 317°
2026-05-06 06:32 -7.17285 -62.49525 39987 ft 464 kts 317°
2026-05-06 06:32 -7.12585 -62.53975 39988 ft 464 kts 318°
2026-05-06 06:33 -7.07882 -62.58426 39990 ft 464 kts 318°
2026-05-06 06:33 -7.03176 -62.62882 39991 ft 464 kts 318°
2026-05-06 06:34 -6.98469 -62.67339 39990 ft 464 kts 318°
2026-05-06 06:34 -6.93757 -62.71799 39992 ft 464 kts 318°
2026-05-06 06:35 -6.89045 -62.76256 39990 ft 464 kts 318°
2026-05-06 06:35 -6.84370 -62.80680 39991 ft 464 kts 318°
2026-05-06 06:36 -6.79669 -62.85127 39992 ft 464 kts 318°
2026-05-06 06:36 -6.74967 -62.89574 39990 ft 464 kts 317°
2026-05-06 06:37 -6.70266 -62.94019 39992 ft 464 kts 317°
2026-05-06 06:37 -6.65560 -62.98468 39989 ft 464 kts 317°
2026-05-06 06:38 -6.60847 -63.02921 39995 ft 464 kts 317°
2026-05-06 06:38 -6.56140 -63.07368 39995 ft 464 kts 317°
2026-05-06 06:39 -6.51460 -63.11788 39991 ft 464 kts 317°
2026-05-06 06:39 -6.46752 -63.16234 39998 ft 464 kts 318°
2026-05-06 06:40 -6.42041 -63.20680 39995 ft 465 kts 318°
2026-05-06 06:40 -6.37322 -63.25133 39990 ft 466 kts 318°
2026-05-06 06:41 -6.32599 -63.29589 39996 ft 466 kts 318°
2026-05-06 06:41 -6.27866 -63.34048 39999 ft 466 kts 318°
2026-05-06 06:42 -6.23144 -63.38499 39990 ft 466 kts 318°
2026-05-06 06:42 -6.18412 -63.42960 39992 ft 466 kts 318°
2026-05-06 06:43 -6.13688 -63.47412 39992 ft 465 kts 318°
2026-05-06 06:43 -6.08995 -63.51834 39992 ft 464 kts 317°
2026-05-06 06:44 -6.04277 -63.56277 39992 ft 464 kts 317°
2026-05-06 06:44 -5.99571 -63.60709 39992 ft 464 kts 317°
2026-05-06 06:45 -5.94866 -63.65139 39993 ft 464 kts 317°
2026-05-06 06:45 -5.90158 -63.69572 39993 ft 464 kts 317°
2026-05-06 06:46 -5.85482 -63.73973 39997 ft 464 kts 317°
2026-05-06 06:46 -5.80766 -63.78412 39994 ft 465 kts 318°
2026-05-06 06:47 -5.76035 -63.82863 39990 ft 467 kts 318°
2026-05-06 06:47 -5.71292 -63.87323 39990 ft 467 kts 318°
2026-05-06 06:48 -5.66546 -63.91786 39990 ft 467 kts 318°
2026-05-06 06:48 -5.61803 -63.96246 39990 ft 467 kts 318°
2026-05-06 06:49 -5.57055 -64.00709 39993 ft 467 kts 318°
2026-05-06 06:49 -5.52310 -64.05167 39990 ft 467 kts 318°
2026-05-06 06:50 -5.47554 -64.09631 40001 ft 468 kts 318°
2026-05-06 06:50 -5.42835 -64.14057 39993 ft 466 kts 319°
2026-05-06 06:51 -5.38097 -64.18501 39993 ft 466 kts 319°
2026-05-06 06:51 -5.33364 -64.22941 39993 ft 466 kts 319°
2026-05-06 06:52 -5.28577 -64.27318 39993 ft 465 kts 320°
2026-05-06 06:52 -5.23685 -64.31563 39993 ft 465 kts 321°
2026-05-06 06:53 -5.18774 -64.35791 39993 ft 465 kts 321°
2026-05-06 06:53 -5.13874 -64.40024 39995 ft 465 kts 321°
2026-05-06 06:54 -5.08977 -64.44262 39993 ft 465 kts 321°
2026-05-06 06:54 -5.04106 -64.48479 39993 ft 465 kts 321°
2026-05-06 06:55 -4.99201 -64.52725 39993 ft 465 kts 321°
2026-05-06 06:55 -4.94298 -64.56967 39995 ft 465 kts 321°
2026-05-06 06:56 -4.89396 -64.61208 39994 ft 465 kts 321°
2026-05-06 06:56 -4.84490 -64.65451 39993 ft 465 kts 321°
2026-05-06 06:57 -4.79582 -64.69695 39994 ft 467 kts 320°
2026-05-06 06:57 -4.74648 -64.73961 39994 ft 468 kts 320°
2026-05-06 06:58 -4.69709 -64.78230 39994 ft 469 kts 320°
2026-05-06 06:58 -4.64767 -64.82500 39994 ft 469 kts 320°
2026-05-06 06:59 -4.59855 -64.86742 39993 ft 469 kts 320°
2026-05-06 06:59 -4.54915 -64.91009 39996 ft 469 kts 320°
2026-05-06 07:00 -4.49970 -64.95280 39987 ft 469 kts 320°
2026-05-06 07:00 -4.45018 -64.99557 39995 ft 472 kts 321°
2026-05-06 07:01 -4.40025 -65.03867 39997 ft 474 kts 321°
2026-05-06 07:01 -4.35052 -65.08160 39994 ft 474 kts 321°
2026-05-06 07:02 -4.30051 -65.12478 39994 ft 474 kts 321°
2026-05-06 07:02 -4.25052 -65.16798 39989 ft 474 kts 320°
2026-05-06 07:03 -4.20058 -65.21134 39993 ft 474 kts 320°
2026-05-06 07:03 -4.15072 -65.25465 39988 ft 474 kts 320°
2026-05-06 07:04 -4.10090 -65.29793 39993 ft 474 kts 320°
2026-05-06 07:04 -4.05129 -65.34100 39993 ft 476 kts 321°
2026-05-06 07:05 -4.00120 -65.38448 39993 ft 476 kts 321°
2026-05-06 07:05 -3.95106 -65.42800 39993 ft 476 kts 321°
2026-05-06 07:06 -3.90095 -65.47148 39993 ft 476 kts 321°
2026-05-06 07:06 -3.85084 -65.51495 39999 ft 476 kts 321°
2026-05-06 07:07 -3.80073 -65.55842 39995 ft 476 kts 321°
2026-05-06 07:07 -3.75094 -65.60160 39992 ft 476 kts 321°
2026-05-06 07:08 -3.70077 -65.64511 39994 ft 477 kts 321°
2026-05-06 07:08 -3.65055 -65.68864 39993 ft 477 kts 321°
2026-05-06 07:09 -3.60061 -65.73192 39996 ft 477 kts 321°
2026-05-06 07:09 -3.55045 -65.77538 39989 ft 477 kts 321°
2026-05-06 07:10 -3.50022 -65.81891 39989 ft 477 kts 321°
2026-05-06 07:10 -3.45162 -65.86410 39993 ft 476 kts 317°
2026-05-06 07:11 -3.40502 -65.91124 39993 ft 475 kts 316°
2026-05-06 07:11 -3.35867 -65.95847 39991 ft 475 kts 316°
2026-05-06 07:12 -3.31249 -66.00519 39989 ft 475 kts 317°
2026-05-06 07:12 -3.26594 -66.05208 39992 ft 475 kts 317°
2026-05-06 07:13 -3.21934 -66.09900 39994 ft 475 kts 317°
2026-05-06 07:13 -3.17280 -66.14587 39991 ft 475 kts 317°
2026-05-06 07:14 -3.12625 -66.19274 39995 ft 474 kts 317°
2026-05-06 07:14 -3.07978 -66.23953 39994 ft 473 kts 317°
2026-05-06 07:15 -3.04122 -66.27834 39983 ft 473 kts 317°
2026-05-06 07:15 -2.99488 -66.32499 39984 ft 473 kts 317°
2026-05-06 07:16 -2.94848 -66.37168 39989 ft 473 kts 317°
2026-05-06 07:16 -2.90213 -66.41832 39989 ft 473 kts 317°
2026-05-06 07:17 -2.85575 -66.46497 39989 ft 473 kts 317°
2026-05-06 07:17 -2.80933 -66.51165 39988 ft 473 kts 317°
2026-05-06 07:18 -2.76271 -66.55852 39980 ft 477 kts 316°
2026-05-06 07:18 -2.71579 -66.60572 39981 ft 479 kts 316°
2026-05-06 07:19 -2.66907 -66.65271 39992 ft 479 kts 316°
2026-05-06 07:19 -2.62202 -66.70001 39983 ft 480 kts 316°
2026-05-06 07:20 -2.57492 -66.74734 39984 ft 480 kts 316°
2026-05-06 07:20 -2.52781 -66.79460 39980 ft 479 kts 317°
2026-05-06 07:21 -2.47928 -66.84035 39984 ft 479 kts 319°
2026-05-06 07:21 -2.42991 -66.88504 39983 ft 478 kts 320°
2026-05-06 07:22 -2.38067 -66.92957 39984 ft 476 kts 320°
2026-05-06 07:22 -2.33168 -66.97407 39980 ft 476 kts 320°
2026-05-06 07:23 -2.28273 -67.01860 39980 ft 476 kts 320°
2026-05-06 07:23 -2.23376 -67.06317 39979 ft 475 kts 320°
2026-05-06 07:24 -2.18483 -67.10769 39978 ft 475 kts 320°
2026-05-06 07:24 -2.13623 -67.15191 39979 ft 476 kts 320°
2026-05-06 07:25 -2.08727 -67.19644 39982 ft 476 kts 319°
2026-05-06 07:25 -2.03836 -67.24092 39982 ft 474 kts 319°
2026-05-06 07:26 -1.98958 -67.28529 39982 ft 473 kts 319°
2026-05-06 07:26 -1.94090 -67.32957 39982 ft 473 kts 319°
2026-05-06 07:27 -1.89210 -67.37394 39983 ft 473 kts 319°
2026-05-06 07:27 -1.84333 -67.41826 39982 ft 473 kts 319°
2026-05-06 07:28 -1.79494 -67.46226 39985 ft 473 kts 319°
2026-05-06 07:28 -1.72165 -67.52889 39985 ft 477 kts 319°
2026-05-06 07:29 -1.67254 -67.57353 39982 ft 478 kts 319°
2026-05-06 07:29 -1.62323 -67.61835 39982 ft 478 kts 319°
2026-05-06 07:30 -1.57404 -67.66306 39982 ft 478 kts 319°
2026-05-06 07:30 -1.52486 -67.70776 39982 ft 478 kts 319°
2026-05-06 07:31 -1.47593 -67.75222 39986 ft 478 kts 319°
2026-05-06 07:31 -1.42641 -67.79722 39984 ft 478 kts 319°
2026-05-06 07:32 -1.37755 -67.84163 39982 ft 477 kts 319°
2026-05-06 07:32 -1.32844 -67.88625 39983 ft 477 kts 319°
2026-05-06 07:33 -1.27932 -67.93087 39978 ft 477 kts 319°
2026-05-06 07:33 -1.23012 -67.97556 39976 ft 477 kts 319°
2026-05-06 07:34 -1.18097 -68.02021 39977 ft 477 kts 319°
2026-05-06 07:34 -1.13184 -68.06483 39978 ft 477 kts 319°
2026-05-06 07:35 -1.08269 -68.10948 39978 ft 477 kts 319°
2026-05-06 07:35 -1.03355 -68.15411 39979 ft 477 kts 319°
2026-05-06 07:36 -0.98470 -68.19848 39983 ft 477 kts 319°
2026-05-06 07:36 -0.93554 -68.24313 39976 ft 478 kts 319°
2026-05-06 07:37 -0.88633 -68.28783 39977 ft 478 kts 319°
2026-05-06 07:37 -0.83706 -68.33257 39973 ft 478 kts 319°
2026-05-06 07:38 -0.78783 -68.37728 39975 ft 478 kts 319°
2026-05-06 07:38 -0.73864 -68.42194 39974 ft 478 kts 319°
2026-05-06 07:39 -0.68936 -68.46669 39970 ft 479 kts 319°
2026-05-06 07:39 -0.64028 -68.51126 39969 ft 480 kts 319°
2026-05-06 07:40 -0.59085 -68.55613 39971 ft 478 kts 319°
2026-05-06 07:40 -0.54165 -68.60081 39970 ft 478 kts 319°
2026-05-06 07:41 -0.49244 -68.64549 39973 ft 478 kts 319°
2026-05-06 07:41 -0.44329 -68.69011 39968 ft 478 kts 319°
2026-05-06 07:42 -0.39408 -68.73479 39969 ft 478 kts 319°
2026-05-06 07:42 -0.34493 -68.77942 39967 ft 478 kts 319°
2026-05-06 07:43 -0.29574 -68.82408 39969 ft 477 kts 319°
2026-05-06 07:43 -0.24690 -68.86842 39967 ft 477 kts 319°
2026-05-06 07:44 -0.19777 -68.91303 39971 ft 477 kts 319°
2026-05-06 07:44 -0.14867 -68.95761 39974 ft 477 kts 319°
2026-05-06 07:45 -0.09959 -69.00216 39972 ft 477 kts 319°
2026-05-06 07:45 -0.05052 -69.04671 39964 ft 477 kts 319°
2026-05-06 07:46 -0.00145 -69.09126 39964 ft 477 kts 319°
2026-05-06 07:46 0.04773 -69.13591 39960 ft 477 kts 319°
2026-05-06 07:47 0.09689 -69.18053 39968 ft 477 kts 319°
2026-05-06 07:47 0.14608 -69.22519 39969 ft 477 kts 319°
2026-05-06 07:48 0.19496 -69.26957 39964 ft 477 kts 319°
2026-05-06 07:48 0.24409 -69.31417 39964 ft 477 kts 319°
2026-05-06 07:49 0.29327 -69.35883 39969 ft 477 kts 319°
2026-05-06 07:49 0.34243 -69.40346 39970 ft 477 kts 319°
2026-05-06 07:50 0.39165 -69.44814 39964 ft 478 kts 319°
2026-05-06 07:50 0.44053 -69.49252 39966 ft 478 kts 319°
2026-05-06 07:51 0.49023 -69.53669 39970 ft 477 kts 321°
2026-05-06 07:51 0.54252 -69.57739 39970 ft 476 kts 323°
2026-05-06 07:52 0.59571 -69.61706 39966 ft 476 kts 324°
2026-05-06 07:52 0.64881 -69.65689 39967 ft 476 kts 323°
2026-05-06 07:53 0.70167 -69.69683 39969 ft 476 kts 323°
2026-05-06 07:53 0.75411 -69.73653 39970 ft 476 kts 323°
2026-05-06 07:54 0.80688 -69.77649 39967 ft 476 kts 323°
2026-05-06 07:54 0.85962 -69.81643 39969 ft 476 kts 323°
2026-05-06 07:55 0.91238 -69.85636 39967 ft 476 kts 323°
2026-05-06 07:55 0.96511 -69.89628 39965 ft 475 kts 323°
2026-05-06 07:56 1.01778 -69.93616 39971 ft 475 kts 323°
2026-05-06 07:56 1.07055 -69.97611 39973 ft 475 kts 323°
2026-05-06 07:57 1.12284 -70.01570 39963 ft 475 kts 323°
2026-05-06 07:57 1.17548 -70.05556 39952 ft 475 kts 323°
2026-05-06 07:58 1.22817 -70.09546 39943 ft 475 kts 323°
2026-05-06 07:58 1.28079 -70.13531 39940 ft 475 kts 323°
2026-05-06 07:59 1.33346 -70.17520 39940 ft 475 kts 323°
2026-05-06 07:59 1.38613 -70.21508 39947 ft 475 kts 323°
2026-05-06 08:00 1.43884 -70.25501 39977 ft 476 kts 323°
2026-05-06 08:00 1.48268 -70.28820 39977 ft 475 kts 322°
2026-05-06 08:01 1.53541 -70.32815 39972 ft 475 kts 322°
2026-05-06 08:01 1.58809 -70.36806 39975 ft 475 kts 322°
2026-05-06 08:02 1.64085 -70.40802 39969 ft 475 kts 322°
2026-05-06 08:02 1.69356 -70.44796 39974 ft 475 kts 322°
2026-05-06 08:03 1.74623 -70.48787 39972 ft 475 kts 322°
2026-05-06 08:03 1.79891 -70.52778 39971 ft 475 kts 322°
2026-05-06 08:04 1.85159 -70.56770 39978 ft 475 kts 322°
2026-05-06 08:04 1.90429 -70.60765 39978 ft 476 kts 322°
2026-05-06 08:05 1.95677 -70.64743 39972 ft 476 kts 322°
2026-05-06 08:05 2.00959 -70.68746 39974 ft 476 kts 322°
2026-05-06 08:06 2.06235 -70.72745 39968 ft 476 kts 322°
2026-05-06 08:06 2.11508 -70.76742 39972 ft 476 kts 322°
2026-05-06 08:07 2.16786 -70.80744 39971 ft 476 kts 322°
2026-05-06 08:07 2.22065 -70.84747 39972 ft 476 kts 322°
2026-05-06 08:08 2.27337 -70.88744 39974 ft 476 kts 322°
2026-05-06 08:08 2.32619 -70.92750 39974 ft 477 kts 322°
2026-05-06 08:09 2.37872 -70.96735 39971 ft 477 kts 322°
2026-05-06 08:09 2.43162 -71.00748 39971 ft 477 kts 322°
2026-05-06 08:10 2.48448 -71.04759 39976 ft 477 kts 322°
2026-05-06 08:10 2.53735 -71.08770 39972 ft 477 kts 322°
2026-05-06 08:11 2.59010 -71.12773 39971 ft 475 kts 322°
2026-05-06 08:11 2.64271 -71.16765 39973 ft 475 kts 322°
2026-05-06 08:12 2.69537 -71.20762 39979 ft 475 kts 322°
2026-05-06 08:12 2.74766 -71.24731 39974 ft 475 kts 322°
2026-05-06 08:13 2.80035 -71.28731 39976 ft 475 kts 322°
2026-05-06 08:13 2.85304 -71.32731 39977 ft 475 kts 322°
2026-05-06 08:14 2.90568 -71.36728 39978 ft 474 kts 322°
2026-05-06 08:14 2.95817 -71.40715 39979 ft 473 kts 322°
2026-05-06 08:15 3.01062 -71.44700 39973 ft 473 kts 322°
2026-05-06 08:15 3.06311 -71.48687 39975 ft 473 kts 322°
2026-05-06 08:16 3.11518 -71.52644 39980 ft 473 kts 322°
2026-05-06 08:16 3.16793 -71.56651 39981 ft 473 kts 322°
2026-05-06 08:17 3.21992 -71.60602 39981 ft 471 kts 322°
2026-05-06 08:17 3.27211 -71.64568 39976 ft 471 kts 322°
2026-05-06 08:18 3.32437 -71.68539 39982 ft 471 kts 322°
2026-05-06 08:18 3.37655 -71.72507 39980 ft 471 kts 322°
2026-05-06 08:19 3.42877 -71.76477 39981 ft 471 kts 322°
2026-05-06 08:19 3.48106 -71.80453 39982 ft 471 kts 322°
2026-05-06 08:20 3.53329 -71.84425 39976 ft 471 kts 322°
2026-05-06 08:20 3.58519 -71.88373 39977 ft 471 kts 322°
2026-05-06 08:21 3.63741 -71.92346 39977 ft 470 kts 322°
2026-05-06 08:21 3.68939 -71.96303 39983 ft 469 kts 322°
2026-05-06 08:22 3.74130 -72.00254 39975 ft 468 kts 322°
2026-05-06 08:22 3.79325 -72.04208 39981 ft 469 kts 322°
2026-05-06 08:23 3.84560 -72.08105 39981 ft 469 kts 326°
2026-05-06 08:23 3.90189 -72.11404 39979 ft 469 kts 331°
2026-05-06 08:24 3.95965 -72.14457 39972 ft 469 kts 332°
2026-05-06 08:24 4.01706 -72.17511 39980 ft 469 kts 331°
2026-05-06 08:25 4.07442 -72.20610 39981 ft 468 kts 331°
2026-05-06 08:25 4.13160 -72.23715 39978 ft 468 kts 331°
2026-05-06 08:26 4.18890 -72.26828 39981 ft 469 kts 332°
2026-05-06 08:26 4.24645 -72.29953 39981 ft 470 kts 332°
2026-05-06 08:27 4.30407 -72.33082 39983 ft 471 kts 332°
2026-05-06 08:27 4.36173 -72.36213 39979 ft 471 kts 332°
2026-05-06 08:28 4.41933 -72.39342 39979 ft 472 kts 332°
2026-05-06 08:28 4.47714 -72.42483 39980 ft 472 kts 332°
2026-05-06 08:29 4.53453 -72.45601 39980 ft 472 kts 332°
2026-05-06 08:29 4.59226 -72.48739 39978 ft 472 kts 332°
2026-05-06 08:30 4.65004 -72.51882 39984 ft 472 kts 332°
2026-05-06 08:30 4.70781 -72.55023 39982 ft 472 kts 332°
2026-05-06 08:31 4.76568 -72.58169 39983 ft 476 kts 331°
2026-05-06 08:31 4.82374 -72.61328 39990 ft 479 kts 332°
2026-05-06 08:32 4.88234 -72.64517 39985 ft 479 kts 332°
2026-05-06 08:32 4.94097 -72.67706 40002 ft 480 kts 332°
2026-05-06 08:33 4.99970 -72.70903 40014 ft 479 kts 332°
2026-05-06 08:33 5.05834 -72.74095 40017 ft 480 kts 332°
2026-05-06 08:34 5.14628 -72.78882 40048 ft 478 kts 331°
2026-05-06 08:35 5.20475 -72.82066 40079 ft 478 kts 331°
2026-05-06 08:35 5.26316 -72.85248 40117 ft 478 kts 331°
2026-05-06 08:36 5.32157 -72.88432 40114 ft 478 kts 331°
2026-05-06 08:36 5.38008 -72.91623 40114 ft 478 kts 331°
2026-05-06 08:37 5.43850 -72.94808 40144 ft 478 kts 331°
2026-05-06 08:37 5.49658 -72.97975 40155 ft 479 kts 331°
2026-05-06 08:38 5.55523 -73.01173 40168 ft 479 kts 331°
2026-05-06 08:38 5.61387 -73.04372 40159 ft 480 kts 332°
2026-05-06 08:39 5.67265 -73.07579 40163 ft 479 kts 331°
2026-05-06 08:39 5.73133 -73.10781 40142 ft 480 kts 331°
2026-05-06 08:40 5.79010 -73.13989 40142 ft 479 kts 331°
2026-05-06 08:40 5.84826 -73.17165 40113 ft 480 kts 332°
2026-05-06 08:41 5.90693 -73.20369 40115 ft 479 kts 332°
2026-05-06 08:41 5.96555 -73.23571 40093 ft 480 kts 332°
2026-05-06 08:42 6.02418 -73.26774 40064 ft 478 kts 332°
2026-05-06 08:42 6.08272 -73.29975 40064 ft 479 kts 332°
2026-05-06 08:43 6.14101 -73.33163 40047 ft 475 kts 331°
2026-05-06 08:43 6.19909 -73.36339 40045 ft 474 kts 331°
2026-05-06 08:44 6.25703 -73.39508 40019 ft 473 kts 331°
2026-05-06 08:44 6.31495 -73.42676 40005 ft 474 kts 331°
2026-05-06 08:45 6.37284 -73.45844 40007 ft 473 kts 331°
2026-05-06 08:45 6.43042 -73.48996 39996 ft 474 kts 331°
2026-05-06 08:46 6.48829 -73.52164 39972 ft 473 kts 331°
2026-05-06 08:46 6.53680 -73.54821 39975 ft 474 kts 331°
2026-05-06 08:47 6.59428 -73.57969 39955 ft 473 kts 331°
2026-05-06 08:47 6.65209 -73.61136 39963 ft 473 kts 331°
2026-05-06 08:48 6.70985 -73.64302 39957 ft 473 kts 331°
2026-05-06 08:48 6.76763 -73.67470 39905 ft 472 kts 331°
2026-05-06 08:49 6.82536 -73.70637 39886 ft 472 kts 331°
2026-05-06 08:49 6.88307 -73.73804 39870 ft 472 kts 331°
2026-05-06 08:50 6.94082 -73.76973 39852 ft 472 kts 331°
2026-05-06 08:50 6.99821 -73.80123 39853 ft 472 kts 331°
2026-05-06 08:51 7.05591 -73.83297 39906 ft 472 kts 330°
2026-05-06 08:51 7.10871 -73.87215 39908 ft 472 kts 318°
2026-05-06 08:52 7.15693 -73.91717 39902 ft 472 kts 316°
2026-05-06 08:52 7.20481 -73.96230 39906 ft 472 kts 317°
2026-05-06 08:53 7.25292 -74.00666 39914 ft 472 kts 317°
2026-05-06 08:53 7.30184 -74.05133 39922 ft 476 kts 317°
2026-05-06 08:54 7.35086 -74.09604 39923 ft 476 kts 317°
2026-05-06 08:54 7.39992 -74.14084 39923 ft 476 kts 317°
2026-05-06 08:55 7.44899 -74.18567 39928 ft 476 kts 317°
2026-05-06 08:55 7.49813 -74.23059 39941 ft 476 kts 317°
2026-05-06 08:56 7.54715 -74.27541 39936 ft 476 kts 317°
2026-05-06 08:56 7.59618 -74.32026 39936 ft 476 kts 317°
2026-05-06 08:57 7.64491 -74.36484 39937 ft 476 kts 317°
2026-05-06 08:57 7.69392 -74.40970 39935 ft 475 kts 317°
2026-05-06 08:58 7.74281 -74.45451 39939 ft 475 kts 317°
2026-05-06 08:58 7.79171 -74.49931 39933 ft 475 kts 317°
2026-05-06 08:59 7.84068 -74.54413 39925 ft 475 kts 317°
2026-05-06 08:59 7.88925 -74.58856 39923 ft 475 kts 317°
2026-05-06 09:00 7.93779 -74.63296 39916 ft 468 kts 317°
2026-05-06 09:00 7.98580 -74.67691 39896 ft 464 kts 317°
2026-05-06 09:00 8.00950 -74.69841 39892 ft 450 kts 318°
2026-05-06 09:01 8.03241 -74.71897 39894 ft 429 kts 317°
2026-05-06 09:01 8.05375 -74.73839 39961 ft 399 kts 317°
2026-05-06 09:01 8.07359 -74.75610 40312 ft 363 kts 318°
2026-05-06 09:01 8.09208 -74.77225 40241 ft 343 kts 318°
2026-05-06 09:02 8.11010 -74.78777 39309 ft 350 kts 319°
2026-05-06 09:02 8.12931 -74.80417 37831 ft 373 kts 319°
2026-05-06 09:02 8.14954 -74.82140 36652 ft 383 kts 319°
2026-05-06 09:02 8.16945 -74.83847 36388 ft 364 kts 320°
2026-05-06 09:03 8.18794 -74.85447 36477 ft 337 kts 319°
2026-05-06 09:03 8.20530 -74.86965 36120 ft 326 kts 319°
2026-05-06 09:03 8.22254 -74.88492 35179 ft 335 kts 319°
2026-05-06 09:03 8.24032 -74.90096 34126 ft 349 kts 319°
2026-05-06 09:04 8.25832 -74.91751 33419 ft 348 kts 319°
2026-05-06 09:04 8.27563 -74.93370 33208 ft 329 kts 318°
2026-05-06 09:04 8.29169 -74.94888 33004 ft 313 kts 318°
2026-05-06 09:04 8.30743 -74.96384 32382 ft 311 kts 318°
2026-05-06 09:05 8.32342 -74.97903 31470 ft 321 kts 317°
2026-05-06 09:05 8.33989 -74.99459 30692 ft 325 kts 317°
2026-05-06 09:05 8.35621 -75.00991 30293 ft 314 kts 317°
2026-05-06 09:05 8.37188 -75.02450 30063 ft 300 kts 317°
2026-05-06 09:06 8.38706 -75.03853 29534 ft 294 kts 318°
2026-05-06 09:06 8.40232 -75.05257 28715 ft 299 kts 318°
2026-05-06 09:06 8.41786 -75.06688 27916 ft 304 kts 318°
2026-05-06 09:06 8.43342 -75.08131 27355 ft 300 kts 318°
2026-05-06 09:07 8.44848 -75.09540 26980 ft 290 kts 318°
2026-05-06 09:07 8.46309 -75.10917 26536 ft 284 kts 318°
2026-05-06 09:07 8.47754 -75.12287 25919 ft 286 kts 318°
2026-05-06 09:07 8.49194 -75.13657 25261 ft 290 kts 318°
2026-05-06 09:08 8.50655 -75.15054 24738 ft 288 kts 318°
2026-05-06 09:08 8.52090 -75.16435 24350 ft 281 kts 318°
2026-05-06 09:08 8.53481 -75.17785 23941 ft 276 kts 317°
2026-05-06 09:08 8.54863 -75.19134 23419 ft 276 kts 317°
2026-05-06 09:09 8.56245 -75.20491 22732 ft 279 kts 317°
2026-05-06 09:09 8.57631 -75.21861 22147 ft 278 kts 317°
2026-05-06 09:09 8.58999 -75.23228 21661 ft 274 kts 317°
2026-05-06 09:09 8.60341 -75.24581 21167 ft 270 kts 317°
2026-05-06 09:10 8.61665 -75.25927 20642 ft 270 kts 317°
2026-05-06 09:10 8.62989 -75.27287 20068 ft 272 kts 317°
2026-05-06 09:10 8.64308 -75.28657 19550 ft 272 kts 317°
2026-05-06 09:10 8.65614 -75.30025 19095 ft 269 kts 316°
2026-05-06 09:11 8.66885 -75.31373 18654 ft 267 kts 316°
2026-05-06 09:11 8.68164 -75.32743 18170 ft 267 kts 316°
2026-05-06 09:11 8.69437 -75.34120 17604 ft 268 kts 316°
2026-05-06 09:11 8.70703 -75.35500 17106 ft 266 kts 316°
2026-05-06 09:12 8.71950 -75.36868 16673 ft 262 kts 316°
2026-05-06 09:12 8.73176 -75.38217 16191 ft 260 kts 316°
2026-05-06 09:12 8.74394 -75.39562 15703 ft 260 kts 315°
2026-05-06 09:12 8.75612 -75.40910 15207 ft 260 kts 315°
2026-05-06 09:13 8.76827 -75.42253 14784 ft 257 kts 315°
2026-05-06 09:13 8.78027 -75.43581 14382 ft 254 kts 316°
2026-05-06 09:13 8.79214 -75.44897 13973 ft 252 kts 316°
2026-05-06 09:13 8.80391 -75.46204 13509 ft 251 kts 316°
2026-05-06 09:14 8.81553 -75.47493 13024 ft 251 kts 316°
2026-05-06 09:14 8.82728 -75.48796 12556 ft 249 kts 316°
2026-05-06 09:14 8.83892 -75.50086 12143 ft 247 kts 316°
2026-05-06 09:14 8.85041 -75.51362 11707 ft 244 kts 316°
2026-05-06 09:15 8.86184 -75.52629 11277 ft 244 kts 316°
2026-05-06 09:15 8.87329 -75.53891 10830 ft 243 kts 316°
2026-05-06 09:15 8.88472 -75.55142 10425 ft 241 kts 316°
2026-05-06 09:15 8.89610 -75.56377 10036 ft 239 kts 316°
2026-05-06 09:16 8.90744 -75.57599 9623 ft 237 kts 316°
2026-05-06 09:16 8.91876 -75.58812 9170 ft 236 kts 316°
2026-05-06 09:16 8.93002 -75.60013 8752 ft 234 kts 316°
2026-05-06 09:16 8.94118 -75.61199 8351 ft 232 kts 317°
2026-05-06 09:17 8.95230 -75.62371 7944 ft 230 kts 317°
2026-05-06 09:17 8.96339 -75.63528 7529 ft 229 kts 317°
2026-05-06 09:17 8.97448 -75.64676 7125 ft 227 kts 317°
2026-05-06 09:17 8.98553 -75.65814 6739 ft 225 kts 317°
2026-05-06 09:18 8.99648 -75.66939 6367 ft 223 kts 317°
2026-05-06 09:18 9.00735 -75.68051 5964 ft 222 kts 317°
2026-05-06 09:18 9.01808 -75.69143 5578 ft 220 kts 317°
2026-05-06 09:18 9.02880 -75.70227 5208 ft 216 kts 317°
2026-05-06 09:19 9.03938 -75.71292 4852 ft 213 kts 317°
2026-05-06 09:19 9.04986 -75.72340 4490 ft 211 kts 317°
2026-05-06 09:19 9.06034 -75.73371 4122 ft 209 kts 317°
2026-05-06 09:19 9.07071 -75.74377 3798 ft 204 kts 317°
2026-05-06 09:20 9.08102 -75.75353 3433 ft 201 kts 318°
2026-05-06 09:20 9.09127 -75.76314 3047 ft 201 kts 317°
2026-05-06 09:20 9.10141 -75.77271 2682 ft 198 kts 317°
2026-05-06 09:20 9.11132 -75.78212 2376 ft 193 kts 317°
2026-05-06 09:21 9.12096 -75.79133 2050 ft 189 kts 317°
2026-05-06 09:21 9.13050 -75.80053 1666 ft 189 kts 316°
2026-05-06 09:21 9.14007 -75.80975 1259 ft 191 kts 316°
2026-05-06 09:21 9.14961 -75.81908 921 ft 190 kts 315°
2026-05-06 09:22 9.15911 -75.82813 615 ft 186 kts 317°
2026-05-06 09:22 9.16877 -75.83688 211 ft 187 kts 319°
2026-05-06 09:22 9.17449 -75.84213 30 ft 0 kts 141°
2026-05-06 09:25 9.17449 -75.84212 31 ft 0 kts 141°
2026-05-06 09:33 9.17448 -75.84212 31 ft 0 kts 141°
2026-05-06 09:50 9.17448 -75.84211 31 ft 0 kts 141°
2026-05-06 09:51 9.17447 -75.84211 31 ft 0 kts 141°
2026-05-06 10:08 9.17446 -75.84211 33 ft 0 kts 141°